When you browse on this site, cookies collect data to enhance your experience and personalize the content and advertising you see.
Visit our Privacy Policy to learn more. By continuing to use the site, you agree to this use of cookies and data.
  • Em Portugal
  • Lista de países
  • Para 7 dias
  • Temperatura da água
  • Mapas de satélite
  • Mapa do tempo
  • Widgets de tempo
  • user-avatar
    Iniciar Sessão

    Previsão horária em Saidpur

    Hoje, 24 Julho, Quarta-feira

    Tempo Temperatura Precipitação Vento Pressão Humidade
    00:00 +29°C° 0 mm 3 m/s 748 mmHg 88%
    01:00 +28°C° 1 mm 3 m/s 748 mmHg 89%
    02:00 +28°C° 1 mm 3 m/s 748 mmHg 89%
    03:00 +28°C° 1 mm 3 m/s 747 mmHg 90%
    04:00 +28°C° 1.8 mm 3 m/s 747 mmHg 91%
    05:00 +28°C° 1.8 mm 4 m/s 747 mmHg 92%
    06:00 +28°C° 0 mm 3 m/s 748 mmHg 92%
    07:00 +28°C° 1 mm 4 m/s 748 mmHg 89%
    08:00 +29°C° 1 mm 4 m/s 748 mmHg 87%
    09:00 +29°C° 1 mm 5 m/s 748 mmHg 84%
    10:00 +30°C° 0.3 mm 5 m/s 748 mmHg 83%
    11:00 +30°C° 0.3 mm 5 m/s 748 mmHg 82%
    12:00 +30°C° 0.3 mm 4 m/s 748 mmHg 81%
    13:00 +32°C° 0.2 mm 4 m/s 748 mmHg 80%
    14:00 +32°C° 0.2 mm 4 m/s 747 mmHg 79%
    15:00 +32°C° 0.2 mm 4 m/s 747 mmHg 78%
    16:00 +30°C° 1.2 mm 3 m/s 747 mmHg 81%
    17:00 +30°C° 1.2 mm 2 m/s 747 mmHg 84%
    18:00 +29°C° 1.2 mm 2 m/s 747 mmHg 88%
    19:00 +29°C° 1.3 mm 2 m/s 747 mmHg 89%
    20:00 +29°C° 1.3 mm 2 m/s 748 mmHg 90%
    21:00 +28°C° 1.3 mm 2 m/s 749 mmHg 91%
    22:00 +28°C° 0.6 mm 2 m/s 749 mmHg 91%
    23:00 +28°C° 0.6 mm 2 m/s 749 mmHg 92%

    Amanhã, 25 Julho, Quinta-feira

    Tempo Temperatura Precipitação Vento Pressão Humidade
    00:00 +28°C° 0.6 mm 2 m/s 749 mmHg 92%
    01:00 +28°C° 0.2 mm 2 m/s 749 mmHg 93%
    02:00 +28°C° 0.2 mm 2 m/s 748 mmHg 93%
    03:00 +28°C° 0.2 mm 2 m/s 748 mmHg 94%
    04:00 +28°C° 0.1 mm 2 m/s 748 mmHg 94%
    05:00 +28°C° 0.1 mm 2 m/s 748 mmHg 94%
    06:00 +28°C° 0.1 mm 2 m/s 748 mmHg 94%
    07:00 +29°C° 1.2 mm 2 m/s 749 mmHg 89%
    08:00 +30°C° 1.2 mm 2 m/s 749 mmHg 85%
    09:00 +30°C° 1.2 mm 3 m/s 750 mmHg 81%
    10:00 +31°C° 1.8 mm 3 m/s 750 mmHg 81%
    11:00 +31°C° 1.8 mm 3 m/s 749 mmHg 81%
    12:00 +32°C° 1.8 mm 4 m/s 749 mmHg 80%
    13:00 +31°C° 0.3 mm 3 m/s 749 mmHg 80%
    14:00 +31°C° 0.3 mm 3 m/s 748 mmHg 79%
    15:00 +31°C° 0.3 mm 3 m/s 748 mmHg 79%
    16:00 +31°C° 0.1 mm 3 m/s 748 mmHg 80%
    17:00 +31°C° 0.1 mm 3 m/s 747 mmHg 80%
    18:00 +31°C° 0.1 mm 3 m/s 747 mmHg 81%
    19:00 +30°C° 0.1 mm 3 m/s 748 mmHg 84%
    20:00 +30°C° 0.1 mm 3 m/s 748 mmHg 86%
    21:00 +29°C° 0.1 mm 3 m/s 749 mmHg 89%
    22:00 +29°C° 0 mm 3 m/s 749 mmHg 88%
    23:00 +29°C° 0 mm 3 m/s 749 mmHg 88%

    Depois de amanhã, 26 Julho, Sexta-feira

    Tempo Temperatura Precipitação Vento Pressão Humidade
    00:00 +29°C° 0 mm 2 m/s 749 mmHg 88%
    01:00 +29°C° 1.1 mm 2 m/s 748 mmHg 88%
    02:00 +29°C° 1.1 mm 2 m/s 748 mmHg 88%
    03:00 +29°C° 1.1 mm 2 m/s 748 mmHg 88%
    04:00 +29°C° 1.9 mm 3 m/s 748 mmHg 89%
    05:00 +28°C° 1.9 mm 4 m/s 748 mmHg 89%
    06:00 +28°C° 1.9 mm 4 m/s 748 mmHg 90%
    07:00 +28°C° 0.7 mm 4 m/s 748 mmHg 89%
    08:00 +29°C° 0.7 mm 5 m/s 748 mmHg 89%
    09:00 +29°C° 0.7 mm 5 m/s 749 mmHg 88%
    10:00 +29°C° 0.8 mm 5 m/s 748 mmHg 86%
    11:00 +30°C° 0.8 mm 5 m/s 748 mmHg 83%
    12:00 +32°C° 0.8 mm 5 m/s 748 mmHg 81%
    13:00 +32°C° 1.1 mm 5 m/s 748 mmHg 80%
    14:00 +32°C° 1.1 mm 4 m/s 747 mmHg 79%
    15:00 +32°C° 1.1 mm 4 m/s 746 mmHg 78%
    16:00 +32°C° 0.4 mm 4 m/s 746 mmHg 78%
    17:00 +32°C° 0.4 mm 4 m/s 746 mmHg 78%
    18:00 +32°C° 0.4 mm 4 m/s 746 mmHg 78%
    19:00 +32°C° 0.1 mm 4 m/s 746 mmHg 81%
    20:00 +30°C° 0.1 mm 4 m/s 747 mmHg 83%
    21:00 +30°C° 0.1 mm 4 m/s 747 mmHg 85%
    22:00 +29°C° 0.2 mm 4 m/s 747 mmHg 86%
    23:00 +29°C° 0.2 mm 5 m/s 747 mmHg 86%

    27 Julho, Sábado

    Tempo Temperatura Precipitação Vento Pressão Humidade
    00:00 +29°C° 0.2 mm 5 m/s 747 mmHg 87%
    01:00 +28°C° 4.4 mm 5 m/s 747 mmHg 89%
    02:00 +28°C° 4.4 mm 5 m/s 747 mmHg 92%
    03:00 +28°C° 4.4 mm 5 m/s 746 mmHg 94%
    04:00 +28°C° 0.4 mm 5 m/s 746 mmHg 93%
    05:00 +28°C° 0.4 mm 5 m/s 746 mmHg 92%
    06:00 +28°C° 0.4 mm 6 m/s 747 mmHg 91%
    07:00 +28°C° 0.2 mm 6 m/s 747 mmHg 89%
    08:00 +29°C° 0.2 mm 7 m/s 748 mmHg 87%
    09:00 +29°C° 0.2 mm 7 m/s 748 mmHg 85%
    10:00 +31°C° 0.4 mm 8 m/s 748 mmHg 82%
    11:00 +32°C° 0.4 mm 8 m/s 748 mmHg 78%
    12:00 +33°C° 0.4 mm 8 m/s 748 mmHg 74%
    13:00 +33°C° 0.6 mm 8 m/s 747 mmHg 74%
    14:00 +33°C° 0.6 mm 8 m/s 747 mmHg 73%
    15:00 +33°C° 0.6 mm 8 m/s 746 mmHg 72%
    16:00 +33°C° 0.4 mm 8 m/s 746 mmHg 74%
    17:00 +32°C° 0.4 mm 7 m/s 746 mmHg 75%
    18:00 +32°C° 0.4 mm 7 m/s 746 mmHg 76%
    19:00 +32°C° 0.9 mm 6 m/s 747 mmHg 79%
    20:00 +30°C° 0.9 mm 6 m/s 748 mmHg 81%
    21:00 +29°C° 0.9 mm 6 m/s 749 mmHg 84%
    22:00 +29°C° 0 mm 6 m/s 749 mmHg 85%
    23:00 +29°C° 0 mm 6 m/s 749 mmHg 86%

    28 Julho, Domingo

    Tempo Temperatura Precipitação Vento Pressão Humidade
    00:00 +29°C° 0 mm 6 m/s 749 mmHg 86%
    01:00 +29°C° 0 mm 6 m/s 748 mmHg 87%
    02:00 +28°C° 0 mm 6 m/s 748 mmHg 87%
    03:00 +28°C° 0 mm 6 m/s 748 mmHg 88%
    04:00 +28°C° 0.1 mm 7 m/s 748 mmHg 88%
    05:00 +28°C° 0.1 mm 7 m/s 748 mmHg 88%
    06:00 +28°C° 0.1 mm 7 m/s 748 mmHg 87%
    07:00 +28°C° 0.4 mm 7 m/s 749 mmHg 87%
    08:00 +28°C° 0.4 mm 7 m/s 749 mmHg 86%
    09:00 +28°C° 0.4 mm 7 m/s 750 mmHg 86%
    10:00 +29°C° 0 mm 7 m/s 749 mmHg 82%
    11:00 +32°C° 0 mm 7 m/s 749 mmHg 78%
    12:00 +33°C° 0 mm 7 m/s 749 mmHg 73%
    13:00 +34°C° 0.1 mm 7 m/s 748 mmHg 71%
    14:00 +34°C° 0.1 mm 6 m/s 748 mmHg 69%
    15:00 +35°C° 0.1 mm 6 m/s 747 mmHg 67%
    16:00 +35°C° 0.3 mm 6 m/s 747 mmHg 68%
    17:00 +34°C° 0.3 mm 5 m/s 747 mmHg 69%
    18:00 +34°C° 0.3 mm 5 m/s 747 mmHg 70%
    19:00 +33°C° 1 mm 4 m/s 748 mmHg 74%
    20:00 +32°C° 1 mm 4 m/s 749 mmHg 78%
    21:00 +30°C° 1 mm 4 m/s 749 mmHg 83%
    22:00 +30°C° 1.5 mm 4 m/s 750 mmHg 84%
    23:00 +30°C° 1.5 mm 4 m/s 750 mmHg 85%

    29 Julho, Segunda-feira

    Tempo Temperatura Precipitação Vento Pressão Humidade
    00:00 +29°C° 1.5 mm 4 m/s 750 mmHg 86%
    01:00 +29°C° 0.5 mm 4 m/s 750 mmHg 86%
    02:00 +29°C° 0.5 mm 4 m/s 749 mmHg 87%
    03:00 +29°C° 0.5 mm 4 m/s 749 mmHg 88%
    04:00 +29°C° 0.1 mm 3 m/s 749 mmHg 89%
    05:00 +28°C° 0.1 mm 3 m/s 749 mmHg 90%
    06:00 +28°C° 0.1 mm 3 m/s 749 mmHg 91%
    07:00 +29°C° 0 mm 3 m/s 750 mmHg 87%
    08:00 +30°C° 0 mm 3 m/s 750 mmHg 82%
    09:00 +31°C° 0 mm 3 m/s 750 mmHg 78%
    10:00 +33°C° 0.4 mm 3 m/s 750 mmHg 73%
    11:00 +34°C° 0.4 mm 3 m/s 750 mmHg 69%
    12:00 +35°C° 0.4 mm 3 m/s 749 mmHg 64%
    13:00 +36°C° 0 mm 3 m/s 748 mmHg 62%
    14:00 +36°C° 0 mm 3 m/s 748 mmHg 60%
    15:00 +36°C° 0 mm 3 m/s 747 mmHg 58%
    16:00 +36°C° 0.5 mm 3 m/s 747 mmHg 61%
    17:00 +35°C° 0.5 mm 3 m/s 747 mmHg 64%
    18:00 +35°C° 0.5 mm 3 m/s 747 mmHg 66%
    19:00 +34°C° 1.8 mm 3 m/s 747 mmHg 71%
    20:00 +33°C° 1.8 mm 3 m/s 748 mmHg 75%
    21:00 +31°C° 1.8 mm 3 m/s 749 mmHg 80%
    22:00 +31°C° 1.3 mm 3 m/s 749 mmHg 81%
    23:00 +31°C° 1.3 mm 3 m/s 749 mmHg 82%
    Mostrar mais